Find Starlink 35374

NORAD ID: 66194 Int'l Des: 2025-243 Owner: SPXS Country: US Constellation: starlink operational
LEOCIRCULAR

当前视图

正在加载3D地球...

About Starlink 35374

Starlink 35374 (NORAD 66194) is a starlink constellation satellite (v2 mini) launched Oct 26, 2025 by SPXS of US. It operates in LEO, CIRCULAR orbit with a mass of 575.00 kg.

即将过境

Passes for default location (London). Set your location on the main map for personalized predictions.

高度历史

Loading altitude history...

两行轨道根数

1 66194U 25243T 26263.69433601 .00021517 00000-0 70260-3 0 9997
2 66194 53.1594 57.7902 0001700 84.6861 275.4335 15.31723916 50536
Epoch: Sep 20, 2026 • Age: 25 hours

当前状态

高度 481.6 km
远地点 / 近地点 N/A
速度 7.62 km/s
星下点 -32.96°S, 120.46°E
发射日期 Oct 26, 2025
运行时间 0.9 years
类型 internet

技术详情

分类 Payload
质量 575.00 kg
干质量 530.00 kg
长度 0.30 m
跨度 29.00 m
形状 ? Box + pan
制造商 SPXS
平台类型 Starlink V2MO
阶段状态 In Orbit
所有者/国家 SPXS/US

Most Searched